mattdh12's sites:

title views votes rating creation
?mj visits quiznos 1,621 46 (4.24)  2014-10-14
?conan news 1,964 62 (3.97)  2013-04-01
?roulette 6,087 95 (4.47)  2013-01-06
?my new text message notification sound 1,120 33 (3.82)  2012-07-22
?bob dole gets a haircut 2,468 76 (4.11)  2011-07-18
?tampa bay opening day 1,474 42 (4.29)  2011-04-12
?clock tower ringing OF THE FUTURE 1,820 38 (4.21)  2010-11-05
?record sounds: the record 1,456 34 (4.29)  2010-04-07
?winston churchill revenge part 2 - WINSTON CHU... 1,046 26 (4.35)  2009-10-24
?winston churchill revenge part 1 - WINSTON CHU... 1,495 22 (4.18)  2009-10-24
?Homeless People HATE the Super Bowl 1,156 56 (4.34)  2009-09-02
?tourney3: cone n jokes for the metal demographic 1,049 24 (4.50)  2009-07-26
?tourney3: shakespeare's forgotten last dram... 1,650 75 (4.07)  2009-07-16
?Lady Gaga - Poker Face (a Kevin Federline remix) 6,210 72 (3.97)  2009-03-22
?fight themed ytmnd for the photoshop tournament c... 1,230 44 (4.20)  2009-01-18
?(nsfw) 2008 yelling bee 3,671 169 (3.99)  2008-11-16
?mario makes a sandwich 23,805 747 (4.25)  2008-08-13
?best ytnmd ever 4,171 147 (4.49)  2008-07-14
?3:00 drinkin dat soda 1,335 45 (4.22)  2008-06-02
?(nsfw) idiot hallo"weiner" "tps&quot... 4,101 125 (3.90)  2008-05-29
?mitch hedberg "moves tha crowd" (with l... 1,984 44 (4.30)  2008-04-22
?Tiger Woods Putt To Win Arnie Palson Tourname... 3,706 61 (4.16)  2008-04-03
?"u"tube duel 2,019 99 (4.01)  2008-03-03
?work safety 3,845 218 (4.14)  2008-01-20
?shaq gives birth 9,151 334 (4.11)  2008-01-01
?guy who milks cows grabs the wrong bucket and a... 3,225 87 (4.21)  2007-12-17
?raige aganest the machines final concert [full video] ... 1,078 40 (4.13)  2007-12-09
?trebeks thanksgiving 1,194 45 (4.11)  2007-11-23
?shaq zone 32,002 979 (4.42)  2007-11-12
?Part 3: "Funny Show: The Show": Epis... 595 28 (4.21)  2007-11-05
?Part 2: "Funny Show: The Show": Epis... 583 24 (4.17)  2007-11-05
?Part 1: "Funny Show: The Show": Epis... 2,267 85 (4.21)  2007-11-05
?the patty melt song 564 21 (3.76)  2007-10-18
?Mario Gets Revenge On Neo 1,268 47 (4.06)  2007-10-15
?HOOOOOOOONK! OOOOOOOOH! 1,495 46 (4.39)  2007-10-12
?(nsfw) kramer gets the wrong script but it doesnt m... 5,531 106 (4.14)  2007-10-06
?[b](nsfw)[/b] Alternate Ending to the Hit Film "... 22,067 90 (4.14)  2007-09-21
?PART 1: BEST BEATS (i win, best cannot be BE... 564 32 (4.09)  2007-09-13
?tight 679 24 (3.83)  2007-09-08
?Sp"y": "der man" 4 IN 3-D 900 25 (4.28)  2007-08-25
?Your Mom ft. Dyslexia - Light My Fire [LIVE] 895 45 (3.89)  2007-08-19
?scene from ""A Jerk"" 616 29 (3.97)  2007-08-18
?doctor gets sunburned and gives sun a "taste... 3,349 156 (4.07)  2007-08-09
?bob barker as a contestant on the new price is right 4,796 80 (4.01)  2007-07-17
?captain jean luc picard plays 3D Pinball for Window... 4,316 69 (3.99)  2007-07-08
?cant brake treadmill guys stride 839 27 (3.30)  2007-07-03
?(nsfw) blank space 2,184 76 (3.99)  2007-06-29
?exciting infinite lap race 759 25 (4.04)  2007-06-12
?funky furniture 1,511 89 (3.83)  2007-06-09
?a biker jumps too far 1,161 54 (4.17)  2007-05-25
?Ending to Se7en in German (with subtitles) 1,129 33 (4.00)  2007-05-18
?carlos mencia steals from websters joke book? 3,576 35 (4.11)  2007-05-12
?a plate fight for the ages 1,120 37 (3.89)  2007-05-07
?my title was too long so i put it in the description 10,392 209 (3.89)  2007-05-06
?YTMND.dot.fce 997 63 (3.89)  2007-05-02
?(nsfw) jared does the 30 second version of a comm... 3,096 107 (3.96)  2007-05-01
?extreme street jumping with big daddy gramps 846 17 (3.88)  2007-04-28
?put hat on "head" 697 34 (4.15)  2007-04-11
?pizza guy performs coltrane but is blWHOAn awa... 2,888 44 (4.25)  2007-04-10
?mitch hedberg says some words but the crowd doe... 1,066 30 (3.57)  2007-04-04
?(nsfw) i get my first birdie in tiger woods 2007 and fe... 3,340 57 (4.05)  2007-04-04
?Photoshop Contest 1,569 40 (3.73)  2007-03-28
?chief (updated title, no longer says dew army in par... 768 29 (3.90)  2007-03-25
?(nsfw) customer tries to order bread but the waiter ... 2,436 37 (3.92)  2007-03-21
?We just might be trapped 773 27 (3.67)  2007-03-19
?my grandpa experiments with a snowy sandwich be... 2,762 38 (3.89)  2007-03-18
?If the Movie Speed was Realistic 988 37 (4.14)  2007-03-13
?Comedy General Hospital with Major Budget Cuts In... 813 31 (4.03)  2007-03-07
?Picture Time at the Library 703 35 (3.49)  2007-03-05
?I AM GOING TO SUE YOU'R CAT!!! a dra... 3,532 41 (3.39)  2007-03-04
?My Balloons and Me 933 39 (4.31)  2007-02-26
?Macromedia Flash Noise Tutorial 2,501 61 (3.85)  2007-02-21
?A NEW FAD SITE LOL FOR THE NEW FAD 1,020 52 (3.94)  2007-02-20
?My Favorite Kill Bill Scene 3,049 76 (4.13)  2007-02-16
?(nsfw) AAHHK 1,349 34 (4.24)  2007-02-15
?LAUGHING CLOCK NO WAY LOL NOT FAKE 1,297 39 (3.82)  2007-02-13
?Bart's Mortal Enemy 16,096 357 (3.79)  2007-02-11
?THE AXE EFFECT 725 18 (3.61)  2007-02-11
?scanimation 745 37 (4.16)  2007-02-09
?THREE MINUTE COMIXS 1,087 32 (4.06)  2007-02-07
?THE SECOND FINAL BATTLE 1,262 32 (4.09)  2007-02-06
?Popular 709 33 (4.15)  2007-02-04
?Funeral 1,547 45 (4.16)  2007-01-28
?local on the 8s? more like...local voat 5 on this ytm... 1,062 61 (3.77)  2007-01-27
?(nsfw) ATTENTION YTMND: NSFW 13,625 65 (3.92)  2007-01-21
?THE FIRST FINAL BATTLE 895 30 (3.93)  2007-01-21
?fresh prince of square wave 1,354 44 (3.73)  2007-01-20
?will smith says uh what woo and haha a lot 21,834 465 (4.24)  2007-01-18
?SWEET SASSY MOLASSY 902 36 (3.64)  2007-01-17
?three things happen: jorge plays fast money, you v... 1,332 64 (4.14)  2007-01-15
?FUNNIE BAGELS WITH ZAZAZA ADDED LOL ... 2,777 37 (3.76)  2007-01-15
?Teenage Mustard Ninja Jorge Busch and Aleksand... 1,702 85 (3.76)  2007-01-06
?The World is Flat 8,579 462 (4.33)  2007-01-03
?NEW SITCOM 985 26 (3.92)  2007-01-02
?PlREEEEEEEEEase. KHAN am NOOOOOOOgof... 966 40 (3.65)  2006-12-29
?oj simpson was GUILTY 778 23 (3.52)  2006-12-28
?these rocket balloons are perfect, what more could... 2,026 27 (4.04)  2006-12-23
?(nsfw) jon carrie atemps to billd a grand carrielition in... 3,716 136 (3.69)  2006-12-22
?some person enjoys a ytmnd of an object without a ... 1,099 41 (3.80)  2006-12-21
?test site 829 35 (3.97)  2006-12-20
?Trick Shot Magic 912 33 (3.52)  2006-12-17
?WHAT WAS I THINKING? 1,593 65 (4.25)  2006-11-29
?famly um uh feyoud 716 30 (4.03)  2006-11-28
?(nsfw) DANCING SUNGLASSES 1,149 37 (3.70)  2006-11-28
?SHE FORGOT MY WATCH 635 32 (3.94)  2006-11-27
?jon carrie plays grand carrielition sweeper but loses ... 1,505 82 (3.98)  2006-11-24
?Jared is Gaining Weight Again 7,525 301 (3.87)  2006-11-23
?Pancake Fiction (Part 2) 822 20 (3.75)  2006-11-22
?Pancake Fiction (Part 1) 896 19 (4.05)  2006-11-21
?i put tons of effort into this 455 24 (3.75)  2006-11-20
?Jorge busch wants to buy a grand carrielition, but v... 1,280 87 (3.48)  2006-11-19
?A Very Square YTMND 636 31 (3.32)  2006-11-18
?PS3 on ebay will retail for... 7,113 86 (3.78)  2006-11-17
?Future Crocodile-O'Brien doesn't care... 939 41 (3.90)  2006-11-14
?Link finds a... what the hell is that? 1,322 36 (3.67)  2006-11-14
?Conan is...A TALK SHOW HOST 1,797 55 (4.07)  2006-11-11
?the guy who plays khan gets sick so borat plays hi... 2,925 36 (3.89)  2006-11-11
?WHICH CLOCK IS REAL 10,863 301 (3.31)  2006-11-09
?MY ENTRIE #! FOR BORAT CONTEST 1,501 48 (3.71)  2006-11-08
?HUGE TRUCK CRASH 2,111 71 (4.18)  2006-11-05
?EARTHQUAKE but some fat guy is too hungry to ... 706 20 (3.65)  2006-11-03
?Dean Wave 10,187 495 (4.35)  2006-11-01
?NBA Jam Returns 2,158 87 (3.83)  2006-10-31
?COOL MUSIC VIDEO 686 24 (3.88)  2006-10-30
?test site dont vote 1,010 42 (3.83)  2006-10-29
?how to eat an air conditioner in under 62 seconds 2,150 82 (3.32)  2006-10-29
?jorge busch shoots a +5 and at the same time teach... 1,375 84 (3.95)  2006-10-27
?KHAN-KHAN DANCE 739 45 (3.16)  2006-10-24
?Skating 606 23 (3.96)  2006-10-24
?(Voated5) How to prank Jon Carrie 17,939 571 (3.75)  2006-10-22
?Jared interviews some guy 1,020 56 (3.93)  2006-10-20
?Jared is DISGUSTED by the amount of grams 2,681 136 (3.92)  2006-10-20
?What Shaq Thinks of Kobe's CD 1,457 21 (3.76)  2006-10-19
?Alligator ate my Playmobil 1,072 33 (3.79)  2006-10-17
?SO UGLY 618 22 (3.68)  2006-10-17
?mitch hedberg tells a funny joke and the audience k... 1,247 42 (3.31)  2006-10-16
?George's Answering Machine 719 43 (3.72)  2006-10-15
?Low Budget Movie 643 28 (3.71)  2006-10-15
?ITS A TTSRAP 824 27 (4.11)  2006-10-15
?Too Much Orange Soda 974 46 (3.67)  2006-10-13
?KHAAAAAAAAAAAAAAAAAAAAAAAAA... 1,522 61 (4.13)  2006-10-11
?how jared really did it 1,013 34 (3.26)  2006-10-10
?Workout 898 42 (3.83)  2006-10-08
?Home Alone 5 Trailer 3,320 81 (3.49)  2006-10-07
?B.W.A. - Forgot the Polend (but not the 5s) 716 48 (3.73)  2006-10-04
?These Pretzels are Making You VOAT 5 1,504 101 (4.00)  2006-10-01
?My Relaxation Page 1,166 64 (3.61)  2006-09-29
?Jump Rope 1,222 39 (3.79)  2006-09-25
?Khan Goes to the Zoo 647 29 (3.48)  2006-09-19
?polend price is rong (part 5 of 5) 1,934 94 (3.97)  2006-09-15
?jon carrie forgot polend because of football 1,289 91 (3.62)  2006-09-09
?A New Kind of Tool 1,093 24 (3.54)  2006-09-07
?Scarface (short version) 888 27 (3.15)  2006-09-05
?Mr. Sparkle Song 4,150 49 (3.92)  2006-09-03
?(nsfw) Poland Bulls win at the buzzer (vote 5 for fa... 1,742 83 (3.89)  2006-08-29
?We're going to Poland, PLEASE VOT... 2,357 121 (3.25)  2006-08-20
?aliens polandize the world and make you vote 5 1,132 59 (3.63)  2006-08-19
?Federline Remembered Poland 3,560 113 (4.03)  2006-08-18
?Will Smith Gets 'Jiggy' with 'It&... 1,353 48 (3.46)  2006-08-13
?ce ytmnd est français 889 32 (2.16)  2006-08-12
?Daddy Jackson 661 28 (3.54)  2006-08-10
?The Who feat. Arnold - Who Are You? 16,129 440 (4.07)  2006-07-28
?Hippie Phil 3,819 39 (4.26)  2006-07-28
?Saget performs on AFV 1,136 38 (3.76)  2006-07-27
?Arnold is too strong for Price is Right 17,246 410 (4.01)  2006-07-25
?Your legacy? 1,601 38 (3.79)  2006-07-16
?What's the worst that could happen? 1,051 51 (3.45)  2006-07-16
?RollerCoaster Diecoon 12,167 502 (4.16)  2006-07-13
?Heffer Has No Manners (view in ie) 1,166 29 (3.38)  2006-07-12
?Tightening up graphics is a bad job 1,843 41 (3.61)  2006-07-05
?The REAL Reason the Great Wall of China was B... 15,751 500 (4.07)  2006-07-04
?Die Hard: With a Censorship 13,022 459 (4.20)  2006-04-28
?snakes on my burger 60,500 1,960 (4.32)  2006-04-03
?E.L.: Flying Lobsters 1,179 72 (3.38)  2006-03-31
?Wheres the cake? 1,456 62 (3.32)  2006-03-18
?spy on your friends! 23,943 865 (4.22)  2006-01-15
?Conan Grew a Mustache 2,407 59 (3.58)  2006-01-07
?Will Smith Buys Cheese 3,843 75 (3.73)  2005-12-27
?BINGO BANGO BONGO 1,987 49 (3.43)  2005-12-17
?YUO KHAN DO IT 5,502 105 (3.85)  2005-12-06
?"Im black yall" 8,312 83 (3.72)  2005-11-22
?push it 2,837 48 (3.15)  2005-10-05
?no idea 1,055 45 (3.02)  2005-09-24